Flag for Germany Weather past 2 weeks in Lahr, Baden-Württemberg, Germany

Now
41 °F

Scattered clouds.


Feels Like: 39 °F
Forecast: 35 / 57 °F
Wind: 3 mph from Southwest

Location: Lahr

Current Time: Mar 27, 2015 at 7:03:19 AM

Latest Report: Mar 27, 2015 at 6:00 AM


Visibility: 9 mi

Pressure: 30.03 "Hg

Humidity: 88%

Dew point: 38 °F

Location of LahrLocation

Historic Weather in Lahr — Graph

°F

Lahr temperature yesterday

Maximum temperature yesterday: 49 °F (at 5:00 PM)
Minimum temperature yesterday: 42 °F (at 5:00 AM)
Average temperature yesterday: 45 °F

Past Weeks' High & Low Weather Summary

 TemperatureHumidityPressure
High64 °F (Mar 18, 5:00 PM)99% (Mar 18, 7:00 AM)30.45 "Hg (Mar 18, 7:00 AM)
Low27 °F (Mar 12, 7:00 AM)34% (Mar 12, 3:00 PM)29.66 "Hg (Mar 24, 11:00 PM)
Average44 °F74%30.09 "Hg
* Reported Mar 12 6:00 AM — Mar 27 6:00 AM, Lahr, Weather by CustomWeather, © 2015

Note: Actual official high and low records may vary slightly from our data, if they occured in-between our weather recording intervals... More about our weather records

Advertising

Lahr weather history for previous 24 hours

 ConditionsComfort  
Time TempWeatherWind HumidityBarometerVisibility
6:00 AM
Fri, Mar 27
41 °FScattered clouds.3 mph88%30.03 "Hg9 mi
5:00 AM43 °FOvercast.5 mph85%30.01 "Hg8 mi
4:00 AM43 °FLight rain. Overcast.5 mph85%29.99 "Hg7 mi
3:00 AM43 °FOvercast.5 mph84%29.97 "Hg9 mi
2:00 AM43 °FOvercast.7 mph81%29.96 "Hg11 mi
1:00 AM44 °FOvercast.2 mph80%29.97 "Hg9 mi
12:00 AM43 °FOvercast.3 mph85%29.95 "Hg7 mi
11:00 PM
Thu, Mar 26
44 °FLight freezing rain. Overcast.3 mph82%29.93 "Hg7 mi
10:00 PM44 °FOvercast.5 mph79%29.92 "Hg9 mi
9:00 PM45 °FOvercast.5 mph77%29.90 "Hg16 mi
8:00 PM44 °FLight rain. Overcast.3 mph80%29.89 "Hg16 mi
7:00 PM47 °FLight rain. Overcast.6 mph73%29.86 "Hg12 mi
6:00 PM48 °FOvercast.7 mph67%29.85 "Hg16 mi
5:00 PM49 °FOvercast.6 mph70%29.84 "Hg9 mi
4:00 PM48 °FOvercast.5 mph72%29.85 "Hg9 mi
3:00 PM48 °FOvercast.3 mph68%29.85 "Hg9 mi
2:00 PM47 °FOvercast.3 mph68%29.86 "Hg11 mi
1:00 PM47 °FOvercast.5 mph70%29.87 "Hg9 mi
12:00 PM46 °FOvercast.3 mph73%29.88 "Hg7 mi
11:00 AM45 °FOvercast.2 mph78%29.88 "Hg6 mi
10:00 AM44 °FOvercast.2 mph84%29.89 "Hg6 mi
9:00 AM43 °FLight rain. Overcast.2 mph84%29.89 "Hg5 mi
8:00 AM43 °FLight rain. Overcast.2 mph90%29.88 "Hg5 mi
7:00 AM42 °FOvercast.1 mph93%29.86 "Hg4 mi
Weather by CustomWeather, © 2015

See weather overviewHow to use our weather pages